1 Minute Report
Date Time Wind Direction Wind Speed Wind Gust Wind Variable Altimeter Temperature Dewpoint Relative Humidity Visibility Ceiling Precip Present Weather Density Alt Wind Chill Heat Index
18/04/11 12:53 200 10 N/A N/A 30.13 37(F), 3(C) 31(F), -1(C) 75% 5 BKN050 N/A Haze N/A 30 F N/A 7277
18/04/11 12:52 200 10 N/A N/A 30.13 37(F), 3(C) 31(F), -1(C) 75% 5 BKN050 N/A Haze N/A 30 F N/A 7276
18/04/11 12:51 200 10 N/A N/A 30.12 37(F), 3(C) 31(F), -1(C) 75% 5 BKN050 N/A Haze N/A 30 F N/A 7275
18/04/11 12:50 200 10 N/A N/A 30.12 37(F), 3(C) 31(F), -1(C) 75% 5 BKN050 N/A Haze N/A 30 F N/A 7274
18/04/11 12:49 200 10 N/A N/A 30.12 37(F), 3(C) 31(F), -1(C) 75% 5 BKN050 N/A Haze N/A 30 F N/A 7273
18/04/11 12:48 200 09 N/A N/A 30.12 37(F), 3(C) 31(F), -1(C) 75% 5 BKN050 N/A Haze N/A 30 F N/A 7272
18/04/11 12:47 200 10 N/A N/A 30.12 37(F), 3(C) 31(F), -1(C) 75% 5 BKN050 N/A Haze N/A 30 F N/A 7271
18/04/11 12:46 200 10 N/A N/A 30.12 37(F), 3(C) 31(F), -1(C) 75% 5 BKN050 N/A Haze N/A 30 F N/A 7270
18/04/11 12:45 190 09 N/A N/A 30.12 37(F), 3(C) 31(F), -1(C) 75% 5 BKN050 N/A Haze N/A 30 F N/A 7269
18/04/11 12:44 190 09 N/A N/A 30.12 37(F), 3(C) 31(F), -1(C) 75% 5 BKN050 N/A Haze N/A 30 F N/A 7268
18/04/11 12:43 190 10 N/A N/A 30.12 37(F), 3(C) 31(F), -1(C) 75% 5 BKN050 BKN060 N/A Haze N/A 30 F N/A 7267
18/04/11 12:42 190 09 N/A N/A 30.13 37(F), 3(C) 31(F), -1(C) 75% 5 BKN050 N/A Haze N/A 30 F N/A 7266
18/04/11 12:41 190 09 N/A N/A 30.12 37(F), 3(C) 31(F), -1(C) 75% 5 BKN050 BKN060 N/A Haze N/A 30 F N/A 7265
18/04/11 12:40 180 09 N/A N/A 30.12 37(F), 3(C) 31(F), -1(C) 75% 5 BKN050 BKN060 N/A Haze N/A 30 F N/A 7264
18/04/11 12:39 180 10 N/A N/A 30.12 37(F), 3(C) 31(F), -1(C) 75% 5 OVC050 N/A Haze N/A 30 F N/A 7263
18/04/11 12:38 180 09 N/A N/A 30.12 37(F), 3(C) 31(F), -1(C) 75% 5 OVC050 N/A Haze N/A 30 F N/A 7262
18/04/11 12:37 180 09 N/A N/A 30.12 37(F), 3(C) 31(F), -1(C) 75% 5 OVC050 N/A Haze N/A 30 F N/A 7261
18/04/11 12:36 180 10 N/A N/A 30.12 37(F), 3(C) 31(F), -1(C) 75% 5 OVC050 N/A Haze N/A 30 F N/A 7260
18/04/11 12:35 180 10 N/A N/A 30.12 37(F), 3(C) 31(F), -1(C) 75% 5 OVC050 N/A Haze N/A 30 F N/A 7259
18/04/11 12:34 180 10 N/A N/A 30.12 36(F), 2(C) 31(F), -1(C) 80% 5 OVC050 N/A Haze N/A 29 F N/A 7258
18/04/11 12:33 180 09 N/A N/A 30.12 36(F), 2(C) 31(F), -1(C) 80% 5 OVC050 N/A Haze N/A 29 F N/A 7257
18/04/11 12:32 180 09 N/A N/A 30.12 36(F), 2(C) 31(F), -1(C) 80% 5 OVC050 N/A Haze N/A 29 F N/A 7256
18/04/11 12:31 180 10 N/A N/A 30.12 36(F), 2(C) 31(F), -1(C) 80% 5 OVC050 N/A Haze N/A 29 F N/A 7255
18/04/11 12:30 180 09 N/A N/A 30.12 36(F), 2(C) 31(F), -1(C) 80% 5 OVC050 N/A Haze N/A 29 F N/A 7254
18/04/11 12:29 180 08 N/A N/A 30.12 36(F), 2(C) 31(F), -1(C) 80% 5 OVC050 N/A Haze N/A 30 F N/A 7253
18/04/11 12:28 180 09 N/A N/A 30.12 36(F), 2(C) 31(F), -1(C) 80% 5 OVC050 N/A Haze N/A 29 F N/A 7252
18/04/11 12:27 180 09 N/A N/A 30.12 36(F), 2(C) 31(F), -1(C) 80% 5 OVC050 N/A Haze N/A 29 F N/A 7251
18/04/11 12:26 180 09 N/A N/A 30.12 36(F), 2(C) 31(F), -1(C) 80% 5 OVC050 N/A Haze N/A 29 F N/A 7250
18/04/11 12:25 180 10 N/A N/A 30.12 36(F), 2(C) 31(F), -1(C) 80% 7 OVC050 N/A Haze N/A 29 F N/A 7249
18/04/11 12:24 180 10 N/A N/A 30.12 36(F), 2(C) 31(F), -1(C) 80% 5 OVC050 N/A Haze N/A 29 F N/A 7248
18/04/11 12:23 180 10 N/A N/A 30.12 36(F), 2(C) 31(F), -1(C) 80% 7 OVC050 N/A N/A N/A 29 F N/A 7247
18/04/11 12:22 180 09 N/A N/A 30.12 36(F), 2(C) 31(F), -1(C) 80% 7 OVC050 N/A N/A N/A 29 F N/A 7246
18/04/11 12:21 190 09 N/A N/A 30.12 36(F), 2(C) 31(F), -1(C) 80% 5 OVC050 N/A Haze N/A 29 F N/A 7245
18/04/11 12:20 190 10 N/A N/A 30.12 36(F), 2(C) 31(F), -1(C) 80% 5 OVC050 N/A Haze N/A 29 F N/A 7244
18/04/11 12:19 190 09 N/A N/A 30.13 36(F), 2(C) 31(F), -1(C) 80% 5 OVC050 N/A Haze N/A 29 F N/A 7243
18/04/11 12:18 190 09 N/A N/A 30.13 36(F), 2(C) 31(F), -1(C) 80% 5 BKN050 OVC065 N/A Haze N/A 29 F N/A 7242
18/04/11 12:17 190 09 N/A N/A 30.13 36(F), 2(C) 31(F), -1(C) 80% 5 OVC050 N/A Haze N/A 29 F N/A 7241
18/04/11 12:16 190 08 N/A N/A 30.13 36(F), 2(C) 31(F), -1(C) 80% 5 OVC050 N/A Haze N/A 30 F N/A 7240
18/04/11 12:15 190 08 N/A N/A 30.13 36(F), 2(C) 31(F), -1(C) 80% 5 BKN050 OVC060 N/A Haze N/A 30 F N/A 7239
18/04/11 12:14 190 08 N/A N/A 30.13 36(F), 2(C) 31(F), -1(C) 80% 5 BKN050 OVC060 N/A Haze N/A 30 F N/A 7238
18/04/11 12:13 190 08 N/A N/A 30.13 36(F), 2(C) 31(F), -1(C) 80% 5 BKN050 OVC060 N/A Haze N/A 30 F N/A 7237
18/04/11 12:12 190 08 N/A N/A 30.13 36(F), 2(C) 31(F), -1(C) 80% 5 BKN050 OVC060 N/A Haze N/A 30 F N/A 7236
18/04/11 12:11 180 07 N/A N/A 30.13 36(F), 2(C) 31(F), -1(C) 80% 5 BKN050 OVC060 N/A Haze N/A 30 F N/A 7235
18/04/11 12:10 180 07 N/A N/A 30.13 36(F), 2(C) 31(F), -1(C) 80% 5 BKN050 OVC060 N/A Haze N/A 30 F N/A 7234
18/04/11 12:09 180 07 N/A N/A 30.13 36(F), 2(C) 31(F), -1(C) 80% 7 BKN050 OVC060 N/A N/A N/A 30 F N/A 7233
18/04/11 12:08 180 08 N/A N/A 30.13 36(F), 2(C) 31(F), -1(C) 80% 5 BKN050 OVC060 N/A Haze N/A 30 F N/A 7232
18/04/11 12:07 180 08 N/A N/A 30.13 36(F), 2(C) 31(F), -1(C) 80% 5 BKN050 OVC060 N/A Haze N/A 30 F N/A 7231
18/04/11 12:06 180 08 N/A N/A 30.13 36(F), 2(C) 31(F), -1(C) 80% 5 BKN050 OVC060 N/A Haze N/A 30 F N/A 7230
18/04/11 12:05 180 08 N/A N/A 30.13 36(F), 2(C) 31(F), -1(C) 80% 5 BKN050 OVC060 N/A Haze N/A 30 F N/A 7229
18/04/11 12:04 180 08 N/A N/A 30.13 36(F), 2(C) 31(F), -1(C) 80% 5 BKN050 OVC060 N/A Haze N/A 30 F N/A 7228
18/04/11 12:03 180 08 N/A N/A 30.13 36(F), 2(C) 31(F), -1(C) 80% 5 BKN050 OVC060 N/A Haze N/A 30 F N/A 7227
18/04/11 12:02 180 08 N/A N/A 30.13 36(F), 2(C) 31(F), -1(C) 80% 5 BKN050 OVC060 N/A Haze N/A 30 F N/A 7226
18/04/11 12:01 180 08 N/A N/A 30.13 36(F), 2(C) 31(F), -1(C) 80% 5 BKN050 OVC060 N/A Haze N/A 30 F N/A 7225
18/04/11 12:00 180 08 N/A N/A 30.13 36(F), 2(C) 31(F), -1(C) 80% 5 BKN050 OVC060 N/A Haze N/A 30 F N/A 7224
18/04/11 11:59 180 08 N/A N/A 30.13 36(F), 2(C) 31(F), -1(C) 80% 5 BKN050 OVC060 N/A Haze N/A 30 F N/A 7223
18/04/11 11:58 190 07 N/A N/A 30.13 36(F), 2(C) 31(F), -1(C) 80% 5 BKN050 OVC060 N/A Haze N/A 30 F N/A 7222
18/04/11 11:57 180 07 N/A N/A 30.13 36(F), 2(C) 31(F), -1(C) 80% 5 BKN050 OVC060 N/A Haze N/A 30 F N/A 7221
18/04/11 11:56 180 07 N/A N/A 30.13 36(F), 2(C) 31(F), -1(C) 80% 5 BKN050 OVC060 N/A Haze N/A 30 F N/A 7220
18/04/11 11:55 190 07 N/A N/A 30.13 35(F), 2(C) 31(F), -1(C) 80% 5 BKN050 OVC060 N/A Mist N/A 29 F N/A 7219
18/04/11 11:54 190 07 N/A N/A 30.13 35(F), 2(C) 31(F), -1(C) 80% 5 BKN050 OVC060 N/A Mist N/A 29 F N/A 7218
18/04/11 11:53 190 07 N/A N/A 30.13 35(F), 2(C) 31(F), -1(C) 80% 5 BKN050 OVC060 N/A Mist N/A 29 F N/A 7217
18/04/11 11:52 190 07 N/A N/A 30.13 35(F), 2(C) 31(F), -1(C) 80% 5 BKN060 OVC070 N/A Mist N/A 29 F N/A 7216
18/04/11 11:51 190 07 N/A N/A 30.13 35(F), 2(C) 31(F), -1(C) 80% 5 BKN060 OVC070 N/A Mist N/A 29 F N/A 7215
18/04/11 11:50 190 07 N/A N/A 30.13 35(F), 2(C) 31(F), -1(C) 80% 5 SCT060 OVC070 N/A Mist N/A 29 F N/A 7214
18/04/11 11:49 190 07 N/A N/A 30.13 35(F), 2(C) 31(F), -1(C) 80% 5 SCT060 OVC070 N/A Mist N/A 29 F N/A 7213
18/04/11 11:48 190 07 N/A N/A 30.13 35(F), 2(C) 31(F), -1(C) 80% 5 SCT060 OVC070 N/A Mist N/A 29 F N/A 7212
18/04/11 11:47 190 08 N/A N/A 30.13 35(F), 2(C) 31(F), -1(C) 80% 5 SCT060 OVC070 N/A Mist N/A 28 F N/A 7211
18/04/11 11:46 180 08 N/A N/A 30.13 35(F), 2(C) 31(F), -1(C) 80% 5 BKN060 OVC070 N/A Mist N/A 28 F N/A 7210
18/04/11 11:45 190 07 N/A N/A 30.13 35(F), 2(C) 31(F), -1(C) 80% 5 BKN060 OVC070 N/A Mist N/A 29 F N/A 7209
18/04/11 11:44 190 07 N/A N/A 30.13 35(F), 2(C) 31(F), -1(C) 80% 5 BKN060 OVC070 N/A Mist N/A 29 F N/A 7208
18/04/11 11:43 180 08 N/A N/A 30.13 35(F), 2(C) 31(F), -1(C) 80% 5 BKN060 OVC070 N/A Mist N/A 28 F N/A 7207
18/04/11 11:42 180 08 N/A N/A 30.13 35(F), 2(C) 31(F), -1(C) 80% 5 BKN060 OVC070 N/A Mist N/A 28 F N/A 7206
18/04/11 11:41 180 08 N/A N/A 30.13 35(F), 2(C) 31(F), -1(C) 80% 5 BKN060 OVC070 N/A Mist N/A 28 F N/A 7205
18/04/11 11:40 190 09 N/A N/A 30.13 35(F), 2(C) 31(F), -1(C) 80% 5 BKN060 OVC070 N/A Mist N/A 28 F N/A 7204
18/04/11 11:39 190 09 N/A N/A 30.13 35(F), 2(C) 31(F), -1(C) 80% 5 BKN060 OVC070 N/A Mist N/A 28 F N/A 7203
18/04/11 11:38 180 08 N/A N/A 30.13 35(F), 2(C) 31(F), -1(C) 80% 5 BKN060 OVC070 N/A Mist N/A 28 F N/A 7202
18/04/11 11:37 190 08 N/A N/A 30.13 35(F), 2(C) 31(F), -1(C) 80% 5 BKN060 OVC070 N/A Mist N/A 28 F N/A 7201
18/04/11 11:36 190 09 N/A N/A 30.13 35(F), 2(C) 31(F), -1(C) 80% 5 BKN060 OVC070 N/A Mist N/A 28 F N/A 7200
18/04/11 11:35 190 08 N/A N/A 30.13 35(F), 2(C) 31(F), -1(C) 80% 5 BKN060 OVC070 N/A Mist N/A 28 F N/A 7199
18/04/11 11:34 200 07 N/A N/A 30.13 35(F), 2(C) 31(F), -1(C) 80% 7 BKN060 OVC070 N/A N/A N/A 29 F N/A 7198
18/04/11 11:33 200 07 N/A N/A 30.13 35(F), 2(C) 31(F), -1(C) 80% 7 BKN060 OVC070 N/A N/A N/A 29 F N/A 7197
18/04/11 11:32 190 07 N/A N/A 30.13 35(F), 2(C) 31(F), -1(C) 80% 7 BKN060 OVC070 N/A N/A N/A 29 F N/A 7196
18/04/11 11:31 190 08 N/A N/A 30.13 35(F), 2(C) 31(F), -1(C) 80% 7 BKN060 OVC070 N/A Mist N/A 28 F N/A 7195
18/04/11 11:30 190 08 N/A N/A 30.13 35(F), 2(C) 31(F), -1(C) 80% 5 BKN060 OVC070 N/A Mist N/A 28 F N/A 7194
18/04/11 11:29 190 07 N/A N/A 30.13 35(F), 2(C) 31(F), -1(C) 80% 7 BKN060 OVC070 N/A N/A N/A 29 F N/A 7193
18/04/11 11:28 190 08 N/A N/A 30.13 35(F), 2(C) 31(F), -1(C) 80% 7 BKN060 OVC070 N/A N/A N/A 28 F N/A 7192
18/04/11 11:27 190 08 N/A N/A 30.13 35(F), 2(C) 31(F), -1(C) 80% 7 BKN060 OVC070 N/A N/A N/A 28 F N/A 7191
18/04/11 11:26 190 08 N/A N/A 30.13 35(F), 2(C) 31(F), -1(C) 80% 7 BKN060 OVC070 N/A N/A N/A 28 F N/A 7190
18/04/11 11:25 190 08 N/A N/A 30.13 35(F), 2(C) 31(F), -1(C) 80% 7 BKN060 OVC070 N/A N/A N/A 28 F N/A 7189
18/04/11 11:24 190 08 N/A N/A 30.13 35(F), 2(C) 31(F), -1(C) 80% 7 BKN060 OVC070 N/A N/A N/A 28 F N/A 7188
18/04/11 11:23 190 08 N/A N/A 30.13 35(F), 2(C) 31(F), -1(C) 80% 7 OVC060 N/A N/A N/A 28 F N/A 7187
18/04/11 11:22 190 08 N/A N/A 30.13 34(F), 1(C) 31(F), -1(C) 86% 7 BKN060 OVC070 N/A N/A N/A 27 F N/A 7186
18/04/11 11:21 190 08 N/A N/A 30.13 34(F), 1(C) 31(F), -1(C) 86% 7 OVC060 N/A N/A N/A 27 F N/A 7185
18/04/11 11:20 190 08 N/A N/A 30.13 34(F), 1(C) 31(F), -1(C) 86% 7 BKN060 OVC090 N/A N/A N/A 27 F N/A 7184
18/04/11 11:19 190 08 N/A N/A 30.13 34(F), 1(C) 31(F), -1(C) 86% 7 BKN060 OVC090 N/A N/A N/A 27 F N/A 7183
18/04/11 11:18 190 08 N/A N/A 30.13 34(F), 1(C) 31(F), -1(C) 86% 7 BKN060 OVC090 N/A N/A N/A 27 F N/A 7182
18/04/11 11:17 190 09 N/A N/A 30.13 34(F), 1(C) 31(F), -1(C) 86% 7 BKN060 OVC090 N/A N/A N/A 27 F N/A 7181
18/04/11 11:16 190 08 N/A N/A 30.13 34(F), 1(C) 31(F), -1(C) 86% 7 BKN060 BKN080 OVC090 N/A N/A N/A 27 F N/A 7180
18/04/11 11:15 190 08 N/A N/A 30.13 34(F), 1(C) 31(F), -1(C) 86% 7 BKN060 BKN080 OVC090 N/A N/A N/A 27 F N/A 7179
18/04/11 11:14 200 07 N/A N/A 30.13 34(F), 1(C) 31(F), -1(C) 86% 7 BKN060 BKN080 OVC090 N/A N/A N/A 28 F N/A 7178
18/04/11 11:13 200 07 N/A N/A 30.13 34(F), 1(C) 31(F), -1(C) 86% 7 BKN060 BKN080 OVC090 N/A N/A N/A 28 F N/A 7177
18/04/11 11:12 200 08 N/A N/A 30.13 34(F), 1(C) 31(F), -1(C) 86% 7 BKN060 BKN080 OVC090 N/A N/A N/A 27 F N/A 7176
18/04/11 11:11 190 08 N/A N/A 30.13 34(F), 1(C) 31(F), -1(C) 86% 7 BKN060 BKN080 OVC090 N/A N/A N/A 27 F N/A 7175
18/04/11 11:10 190 08 N/A N/A 30.13 34(F), 1(C) 31(F), -1(C) 86% 7 BKN060 BKN080 OVC090 N/A N/A N/A 27 F N/A 7174
18/04/11 11:09 190 08 N/A N/A 30.13 34(F), 1(C) 31(F), -1(C) 86% 7 BKN060 BKN080 OVC090 N/A N/A N/A 27 F N/A 7173
18/04/11 11:08 190 08 N/A N/A 30.13 34(F), 1(C) 31(F), -1(C) 86% 7 BKN060 OVC080 N/A N/A N/A 27 F N/A 7172
18/04/11 11:07 190 08 N/A N/A 30.13 34(F), 1(C) 31(F), -1(C) 86% 7 BKN060 OVC080 N/A N/A N/A 27 F N/A 7171
18/04/11 11:06 190 08 N/A N/A 30.13 34(F), 1(C) 31(F), -1(C) 86% 7 BKN060 OVC080 N/A N/A N/A 27 F N/A 7170
18/04/11 11:05 190 08 N/A N/A 30.13 34(F), 1(C) 31(F), -1(C) 86% 7 BKN060 OVC080 N/A N/A N/A 27 F N/A 7169
18/04/11 11:04 190 08 N/A N/A 30.13 34(F), 1(C) 31(F), -1(C) 86% 7 BKN070 OVC080 N/A N/A N/A 27 F N/A 7168
18/04/11 11:03 190 08 N/A N/A 30.13 34(F), 1(C) 31(F), -1(C) 86% 7 BKN070 OVC080 N/A N/A N/A 27 F N/A 7167
18/04/11 11:02 190 08 N/A N/A 30.13 34(F), 1(C) 31(F), -1(C) 86% 7 BKN070 OVC080 N/A N/A N/A 27 F N/A 7166
18/04/11 11:01 190 07 N/A N/A 30.13 34(F), 1(C) 31(F), -1(C) 86% 7 BKN070 OVC080 N/A N/A N/A 28 F N/A 7165
18/04/11 11:00 190 07 N/A N/A 30.13 34(F), 1(C) 31(F), -1(C) 86% 7 BKN070 OVC080 N/A N/A N/A 28 F N/A 7164
18/04/11 10:59 190 07 N/A N/A 30.13 34(F), 1(C) 31(F), -1(C) 86% 7 BKN070 OVC080 N/A N/A N/A 28 F N/A 7163
18/04/11 10:58 190 07 N/A N/A 30.13 34(F), 1(C) 31(F), -1(C) 86% 7 BKN070 OVC080 N/A N/A N/A 28 F N/A 7162
18/04/11 10:57 190 07 N/A N/A 30.13 34(F), 1(C) 31(F), -1(C) 86% 7 BKN070 OVC080 N/A N/A N/A 28 F N/A 7161
18/04/11 10:56 190 07 N/A N/A 30.13 34(F), 1(C) 31(F), -1(C) 86% 7 BKN070 OVC080 N/A N/A N/A 28 F N/A 7160
18/04/11 10:55 190 07 N/A N/A 30.13 34(F), 1(C) 31(F), -1(C) 86% 7 BKN070 OVC080 N/A N/A N/A 28 F N/A 7159
18/04/11 10:54 190 07 N/A N/A 30.13 34(F), 1(C) 31(F), -1(C) 86% 7 BKN070 OVC080 N/A N/A N/A 28 F N/A 7158
18/04/11 10:53 190 07 N/A N/A 30.13 34(F), 1(C) 31(F), -1(C) 86% 7 BKN070 OVC080 N/A N/A N/A 28 F N/A 7157